Location: Fort Wayne
(41.1310°N, 85.1290°W)
Time: 23:29:57
(UTC-05:00)

Meteor 2-10 Rocket - Visible Passes

Search period start: 10 February 2016 00:00
Search period end: 20 February 2016 00:00
Orbit: 734 x 886 km, 81.2° (Epoch: 10 February)

Date Brightness Start Highest point End Pass type
(mag) Time Alt. Az. Time Alt. Az. Time Alt. Az.
10 Feb 5.6 07:07:05 10° SSE 07:11:27 31° E 07:15:48 10° NNE visible
10 Feb 4.9 19:21:33 10° NNW 19:26:36 45° W 19:31:48 10° SSW visible
11 Feb 6.3 06:43:35 10° SE 06:47:20 22° E 06:51:05 10° NE visible
11 Feb 4.2 18:57:08 10° NNW 19:02:24 64° W 19:07:52 10° S visible
12 Feb 6.6 06:20:30 10° ESE 06:23:16 15° E 06:26:03 10° NE visible
12 Feb 3.7 18:32:49 10° N 18:38:11 89° W 18:43:46 10° S visible
12 Feb 7.1 20:19:08 10° W 20:19:25 10° W 20:19:43 10° W visible
13 Feb 6.8 19:52:26 10° NW 19:55:25 15° W 19:58:26 10° WSW visible
14 Feb 6.4 19:27:21 10° NW 19:31:21 21° W 19:35:27 10° SW visible
15 Feb 4.6 06:47:15 10° SSE 06:52:01 48° E 06:56:52 10° NNE visible
15 Feb 5.9 19:02:36 10° NNW 19:07:15 30° W 19:12:03 10° SSW visible
16 Feb 5.3 06:23:25 10° SSE 06:27:53 33° E 06:32:22 10° NNE visible
16 Feb 5.2 18:38:03 10° NNW 18:43:08 42° W 18:48:23 10° SSW visible
17 Feb 6.0 05:59:50 10° SE 06:03:46 24° E 06:07:43 10° NE visible
18 Feb 6.4 05:36:36 10° SE 05:39:41 17° E 05:42:46 10° NE visible
19 Feb 6.8 05:14:13 10° E 05:15:39 11° E 05:17:06 10° ENE visible
19 Feb 3.4 06:51:56 10° SSW 06:56:55 74° W 07:02:01 10° N visible
19 Feb 6.9 19:09:08 10° NW 19:11:55 14° W 19:14:46 10° WSW visible
